Regional Weather Roundup
Issued by NWS Albany, NY

Home | Current Version | Previous Version | Text Only | Print | Product List | Glossary On
Versions: 1 2 3 4 5 6 7 8 9 10 11 12 13 14 15 16 17 18 19 20 21 22 23 24 25 26 27
000
ASUS41 KALY 231310
RWRALY

NEW YORK STATE HOURLY WEATHER ROUNDUP
NATIONAL WEATHER SERVICE ALBANY NY
900 AM EDT THU MAR 23 2017

NOTE: "FAIR" INDICATES FEW OR NO CLOUDS BELOW 12,000 FEET WITH NO
SIGNIFICANT WEATHER AND/OR NO OBSTRUCTIONS TO VISIBILITY.

NYZ032-033-038>043-046>054-057>066-NYZ062>081-082-084-231400-
EAST


CITY           SKY/WX    TMP DP  RH WIND       PRES   REMARKS
ALBANY         SUNNY     20  -1  40 NW10      30.58R WCI   9
GLENS FALLS    SUNNY     21  -3  35 N6        30.55R WCI  13
POUGHKEEPSIE   SUNNY     19   7  59 CALM      30.58R
NEWBURGH       SUNNY     19   7  58 W5        30.57R WCI  13
MONTGOMERY     SUNNY     23   3  42 CALM      30.56R
WHITE PLAINS   SUNNY     24   4  42 NW12      30.56R WCI  13
ISLIP          SUNNY     27   0  31 N17G28    30.56R WCI  14
NEW YORK CITY  SUNNY     29   5  36 NW7       30.60R WCI  22
CENTRAL PARK   SUNNY     25   5  42 NW8       30.61R WCI  16
$$

NYZ005>009-017-018-044>046-055-056-231400-
CENTRAL


CITY           SKY/WX    TMP DP  RH WIND       PRES   REMARKS
FULTON         SUNNY    N/A N/A N/A CALM      30.60R
SYRACUSE       MOSUNNY   19   9  65 CALM      30.60R
ROME           MOSUNNY   10   3  73 CALM      30.61R
ELMIRA         SUNNY     19   9  65 SW8       30.58R WCI   9
BINGHAMTON     SUNNY     15   7  70 NW5       30.50R WCI   8
MONTICELLO     SUNNY     18   1  49 NW7       30.52R WCI   8
$$

NYZ026>034-041>043-087-231400-
NORTH


CITY           SKY/WX    TMP DP  RH WIND       PRES   REMARKS
WATERTOWN      SUNNY     19  11  70 SW3       30.59R
FORT DRUM      NOT AVBL
MASSENA        SUNNY     16   2  54 W8        30.58R WCI   5
SARANAC LAKE   SUNNY     -2  -9  72 SW5       30.43R WCI -12
PLATTSBURGH    SUNNY     21  -4  33 VRB5      30.52R WCI  15
$$

NYZ001>004-010>016-019>021-085-231400-
WEST


CITY           SKY/WX    TMP DP  RH WIND       PRES   REMARKS
NIAGARA FALLS  SUNNY     25  17  72 S3        30.60R
BUFFALO        MOSUNNY   22  15  75 S3        30.59R
DUNKIRK        SUNNY     23  18  81 CALM      30.60R
JAMESTOWN      SUNNY     19  12  73 S5        30.50S WCI  13
WELLSVILLE     SUNNY     18  11  74 CALM      30.49R
ROCHESTER      SUNNY     22  14  71 SW6       30.61R WCI  14
PENN YAN       SUNNY     21  10  62 SW7       30.58R WCI  12
$$

             KEY
       WCI = WIND CHILL INDEX
       VSB = VISIBILITY
       HX  = HEAT INDEX
$$




USA.gov is the U.S. government's official web portal to all federal, state and local government web resources and services.